Lancaster, OH

5:23 PM EDT on June 27, 2017 (GMT -0400)
Fairfield County

Weather History for KLHQ - February, 2014

Change the Weather History Date:

Thursday, February 20, 2014

  Actual Average Record
Temperature  
Mean Temperature 44 °F -  
Max Temperature 63 °F 43 °F 72 °F (1939)
Min Temperature 25 °F 22 °F -17 °F (2015)
Degree Days  
Heating Degree Days 21    
Moisture  
Dew Point 36 °F    
Average Humidity 79    
Maximum Humidity 93    
Minimum Humidity 58    
Precipitation  
Precipitation 0.47 in - - ()
Sea Level Pressure  
Sea Level Pressure 29.86 in    
Wind  
Wind Speed 6 mph (SSE)    
Max Wind Speed 22 mph    
Max Gust Speed 32 mph    
Visibility 6 miles    
Events Rain , Thunderstorm    
Averages and records for this station are not official NWS values.
T = Trace of Precipitation, MM = Missing Value Source: NWS Daily Summary

Daily Weather History Graph

Daily Weather History Graph

Search for Another Location

Airport or City:

Trip Planner

Search our weather history database for the weather conditions in past years. The results will help you decide how hot, cold, wet, or windy it might be!

Date:

Astronomy

Feb. 20, 2014 Rise Set
Actual Time 7:16 AM EST 6:12 PM EST
Civil Twilight 6:49 AM EST 6:40 PM EST
Nautical Twilight 6:17 AM EST 7:11 PM EST
Astronomical Twilight 5:46 AM EST 7:42 PM EST
Moon No Moon Rise 9:59 AM EST (2/20)
Length of Visible Light 11h 50m
Length of Day
10h 56m
Waning Gibbous, 71% of the Moon is Illuminated
Feb 20
Waning Gibbous
Feb 22
Last Quarter
Mar 1
New
Mar 8
First Quarter
Mar 16
Full

Hourly Weather History & Observations

Time (EST) Temp. Windchill Dew Point Humidity Pressure Visibility Wind Dir Wind Speed Gust Speed Precip Events Conditions
12:53 AM 27.0 °F - 24.1 °F 89% 30.11 in 3.0 mi Calm Calm - N/A   Clear
1:53 AM 28.9 °F 23.9 °F 26.1 °F 89% 30.09 in 4.0 mi NE 4.6 mph - N/A   Clear
2:35 AM 26.1 °F - 23.0 °F 88% 30.07 in 2.5 mi Calm Calm - N/A   Clear
2:53 AM 26.1 °F - 24.1 °F 92% 30.09 in 2.5 mi Calm Calm - N/A   Clear
3:05 AM 27.0 °F - 24.1 °F 89% 30.06 in 2.0 mi Calm Calm - N/A   Clear
3:13 AM 26.1 °F - 23.0 °F 88% 30.06 in 2.5 mi Calm Calm - N/A   Clear
3:20 AM 26.1 °F - 23.0 °F 88% 30.05 in 2.0 mi Calm Calm - N/A   Clear
3:32 AM 25.0 °F - 23.0 °F 92% 30.05 in 3.0 mi Calm Calm - N/A   Clear
3:53 AM 26.1 °F - 24.1 °F 92% 30.06 in 3.0 mi Calm Calm - N/A   Clear
4:40 AM 26.1 °F - 23.0 °F 88% 30.02 in 2.5 mi Calm Calm - N/A   Clear
4:51 AM 26.6 °F - 24.8 °F 93% 30.02 in 3.0 mi Calm Calm - N/A   Clear
4:53 AM 27.0 °F - 24.1 °F 89% 30.04 in 3.0 mi Calm Calm - N/A   Clear
5:53 AM 27.0 °F - 24.1 °F 89% 30.01 in 3.0 mi Calm Calm - N/A   Scattered Clouds
6:53 AM 35.1 °F 31.0 °F 30.0 °F 82% 29.99 in 10.0 mi SE 4.6 mph - N/A   Overcast
7:53 AM 36.0 °F 28.5 °F 28.9 °F 76% 29.97 in 10.0 mi ESE 10.4 mph - N/A   Mostly Cloudy
8:53 AM 36.0 °F 28.0 °F 28.9 °F 76% 29.92 in 10.0 mi SE 11.5 mph - N/A Thunderstorm Overcast
9:02 AM 36.0 °F 29.0 °F 28.9 °F 76% 29.89 in 6.0 mi SSE 9.2 mph - 0.01 in Rain Rain
9:37 AM 37.0 °F 28.1 °F 30.9 °F 79% 29.88 in 2.5 mi SE 15.0 mph - 0.10 in Rain , Thunderstorm Heavy Thunderstorms and Rain
9:41 AM 37.0 °F 27.0 °F 32.0 °F 82% 29.87 in 1.0 mi SE 18.4 mph - 0.17 in Rain , Thunderstorm Heavy Thunderstorms and Rain
9:49 AM 37.4 °F 28.5 °F 32.0 °F 81% 29.86 in 2.0 mi SE 15.0 mph - 0.18 in Rain , Thunderstorm Light Thunderstorms and Rain
9:51 AM 37.4 °F 28.5 °F 32.0 °F 81% 29.86 in 4.0 mi SE 15.0 mph - 0.18 in Rain , Thunderstorm Light Thunderstorms and Rain
9:53 AM 37.0 °F 28.5 °F 32.0 °F 82% 29.88 in 8.0 mi SE 13.8 mph - 0.18 in Thunderstorm Overcast
10:09 AM 37.0 °F 29.8 °F 32.0 °F 82% 29.87 in 10.0 mi SSE 10.4 mph - N/A   Overcast
10:22 AM 37.9 °F 29.2 °F 33.1 °F 83% 29.85 in 10.0 mi SE 15.0 mph - N/A   Overcast
10:46 AM 41.0 °F 33.5 °F 35.1 °F 79% 29.84 in 10.0 mi SE 13.8 mph - N/A   Overcast
10:53 AM 41.0 °F 33.9 °F 35.1 °F 79% 29.86 in 10.0 mi SE 12.7 mph - N/A   Overcast
11:22 AM 44.1 °F 40.1 °F 37.0 °F 76% 29.83 in 10.0 mi SE 6.9 mph - N/A   Overcast
11:46 AM 51.1 °F - 41.0 °F 68% 29.82 in 10.0 mi South 16.1 mph 23.0 mph N/A   Scattered Clouds
11:53 AM 51.1 °F - 41.0 °F 68% 29.83 in 10.0 mi South 16.1 mph - N/A   Partly Cloudy
12:53 PM 53.1 °F - 43.0 °F 69% 29.80 in 10.0 mi South 15.0 mph - N/A   Partly Cloudy
1:53 PM 55.9 °F - 45.0 °F 67% 29.75 in 10.0 mi South 13.8 mph - N/A   Clear
2:53 PM 61.0 °F - 48.0 °F 62% 29.73 in 10.0 mi South 13.8 mph - N/A   Partly Cloudy
3:53 PM 63.0 °F - 48.9 °F 60% 29.71 in 10.0 mi South 12.7 mph - N/A   Mostly Cloudy
4:53 PM 62.1 °F - 48.9 °F 62% 29.70 in 10.0 mi South 8.1 mph - N/A   Overcast
5:53 PM 63.0 °F - 48.9 °F 60% 29.69 in 10.0 mi South 17.3 mph 21.9 mph N/A   Scattered Clouds
6:53 PM 63.0 °F - 48.0 °F 58% 29.65 in 10.0 mi South 11.5 mph - N/A   Partly Cloudy
7:53 PM 62.1 °F - 48.0 °F 60% 29.64 in 10.0 mi SSE 15.0 mph - N/A   Partly Cloudy
8:53 PM 63.0 °F - 50.0 °F 63% 29.65 in 10.0 mi South 15.0 mph 25.3 mph 0.01 in Rain Light Rain
9:53 PM 62.1 °F - 53.1 °F 72% 29.64 in 5.0 mi South 21.9 mph 32.2 mph 0.02 in Rain , Thunderstorm Rain
10:02 PM 61.0 °F - 53.1 °F 75% 29.63 in 9.0 mi SSW 16.1 mph 31.1 mph 0.01 in Rain Light Rain
10:44 PM 57.9 °F - 54.0 °F 87% 29.62 in 2.5 mi South 6.9 mph - 0.12 in Rain , Thunderstorm Heavy Rain
10:53 PM 59.0 °F - 55.0 °F 87% 29.61 in 3.0 mi South 11.5 mph 19.6 mph 0.14 in Rain , Thunderstorm Rain
11:02 PM 59.0 °F - 54.0 °F 83% 29.61 in 9.0 mi South 9.2 mph - 0.01 in Rain Light Rain
11:53 PM 57.9 °F - 55.0 °F 90% 29.56 in 5.0 mi SSE 11.5 mph - 0.12 in Rain Rain